Torna al catalogo

SL-8 DEB

AttivoLEO
NORAD 21403·DEBRIS·🇷🇺 Russia

Lanciato Feb 12, 1991 da Plesetsk Cosmodrome

Loading…

Prossimi Passaggi (prossime 24 ore)

TLE

AggiornatoSource: Space-Track

Epoca: Sep 14, 2026, 05:45 UTC

1 21403U 91009BS  26257.23978796  .00000121  00000-0  11099-2 0  9998
2 21403  73.9399 348.7080 0134711 253.9000 132.5491 12.31865049595517

Traccia SL-8 DEB in tempo reale con AllMySat

Download on the App Store